SCP
0 0 0 0 0 0 0 0 0 0 0 0 0 0 0 0 0 0 0 0 0 0 0 0 0 0 0 0 0 0 0 1 2 2 2 1 1 0 0 1 1 1 1 1
0 0 0 0 0 0 0 0 0 0 0 0 0 0 0 0 0 0 0 0 0 0 0 0 0 0 0 0 0 0 0 1 2 2 2 1 1 0 0 0 1 1 1 1
0 0 0 0 0 0 0 0 0 0 0 0 0 0 0 0 0 0 0 0 0 0 0 0 0 0 0 0 0 0 0 1 2 2 2 1 1 1 0 0 1 1 1 1
0 0 0 0 0 0 0 0 0 0 0 0 0 0 0 0 0 0 0 0 0 0 0 0 0 0 0 0 0 0 1 1 1 2 1 1 1 0 0 0 1 1 1 1
0 0 0 0 0 0 0 0 0 0 0 0 0 0 0 0 0 0 0 0 0 0 0 0 0 0 0 0 0 0 1 1 1 1 1 1 0 0 0 0 1 1 1 1
0 0 0 0 0 0 0 0 0 0 0 0 0 0 0 0 0 0 0 0 0 0 0 0 0 0 0 0 0 0 0 0 0 0 0 0 0 0 0 0 1 1 1 1
0 0 0 0 0 0 0 0 0 0 0 0 0 0 0 0 0 0 0 0 0 0 0 0 0 0 0 0 0 0 0 0 0 0 0 0 0 0 0 0 1 1 1 1
0 0 0 0 0 0 0 0 0 0 0 0 0 0 0 0 0 0 0 0 0 0 0 0 0 0 0 0 0 0 0 0 0 0 0 0 0 0 0 0 0 1 1 0
0 0 0 0 0 0 0 0 0 0 0 0 0 0 0 0 0 0 0 0 0 0 0 0 0 0 0 0 0 0 0 0 0 0 0 0 0 0 0 0 0 0 0 0
0 0 0 0 0 0 0 0 0 0 0 0 0 0 0 0 0 0 0 0 0 0 0 0 0 0 0 0 0 0 0 0 0 0 0 0 0 0 0 0 0 0 0 0
0 0 0 0 0 0 0 0 0 0 0 0 0 0 0 0 0 0 0 0 0 0 0 0 0 0 0 0 0 0 0 0 0 0 0 0 0 0 0 0 0 0 0 0
0 0 0 0 0 0 0 0 0 0 0 0 0 0 0 0 0 0 0 0 0 0 0 0 0 0 0 0 0 0 0 0 0 0 0 0 0 0 0 0 0 0 0 0
0 0 0 0 0 0 0 0 0 0 0 0 0 0 0 0 0 0 0 0 0 0 0 0 0 0 0 0 0 1 0 0 0 0 0 0 0 0 0 0 0 0 0 0
0 0 0 0 0 0 0 0 0 0 0 0 0 0 0 0 0 0 0 0 0 0 0 0 0 0 0 0 1 1 0 0 0 0 0 0 0 0 0 0 0 0 0 0
0 0 0 0 0 0 0 0 0 0 0 0 0 0 0 0 0 0 0 0 0 0 0 0 0 0 0 1 1 1 0 0 0 0 0 0 0 0 0 0 0 0 0 0
0 0 0 0 0 0 0 0 0 0 0 0 0 0 0 0 0 0 0 0 0 0 0 0 0 0 1 1 1 1 0 0 0 0 0 0 0 0 0 0 0 0 0 0
0 0 0 0 0 0 0 0 0 0 0 0 0 0 0 0 0 0 0 0 0 0 0 0 0 0 1 1 1 0 0 0 0 0 0 0 0 0 0 0 0 0 0 0
0 0 0 0 0 0 0 0 0 0 0 0 0 0 0 0 0 0 0 0 0 0 0 0 0 0 0 0 0 0 0 0 0 0 0 0 0 0 0 0 0 0 0 0
0 0 0 0 0 0 0 0 0 0 0 0 0 0 0 0 0 0 0 0 0 0 0 0 0 0 0 0 0 0 0 0 0 0 0 0 0 0 0 0 0 0 0 0
0 0 0 0 0 0 0 0 0 0 0 0 0 0 0 0 0 0 0 0 0 0 0 0 0 0 0 0 0 0 0 0 0 0 0 0 0 0 0 0 0 0 0 0
0 0 0 0 0 0 0 0 0 0 0 0 0 0 0 0 0 0 0 0 0 0 0 0 0 0 0 0 0 0 0 0 0 0 0 0 0 0 0 0 0 0 0 0
0 0 0 0 0 0 0 0 0 0 0 0 0 0 0 0 0 0 0 0 0 0 0 0 0 0 0 0 0 0 0 0 0 0 0 0 0 0 0 0 0 0 0 0
0 0 0 0 0 0 0 0 0 0 0 0 0 0 0 0 0 0 0 0 0 0 0 0 0 0 0 0 0 0 0 0 0 0 0 0 0 0 0 0 0 0 0 0
0 0 0 0 0 0 0 0 0 0 0 0 0 0 0 0 0 0 0 0 0 0 0 0 0 0 0 0 0 0 0 0 0 0 0 0 0 0 0 0 0 0 0 0
0 0 0 0 0 0 0 0 0 0 0 0 0 0 0 0 0 0 0 0 0 0 0 0 0 0 0 0 0 0 0 0 0 0 0 0 0 0 0 0 0 0 0 0
0 0 0 0 0 0 0 0 0 0 0 0 0 0 0 0 0 0 0 0 0 0 0 0 0 0 0 0 0 0 0 0 0 0 0 0 0 0 0 0 0 0 0 0
Wind_Speed
5 7 10 12 13 10 8 10 12 9 4 8 13 15 14 12 11 12 11 10 10 9 8 7 7 7 7 7 7 7 7 7 6 5 4 4 4 4 3 3 4 4 5 5
6 11 11 9 9 10 11 12 12 8 5 8 11 16 15 14 14 13 12 11 10 9 7 6 6 7 8 8 8 8 8 8 7 6 5 4 4 3 3 3 4 5 5 5
11 6 6 9 9 11 13 14 12 9 6 8 10 14 13 10 11 11 11 11 10 9 8 7 7 7 7 8 8 7 8 8 8 7 5 4 4 3 3 4 4 4 5 5
8 6 5 8 10 11 12 10 10 10 8 6 6 10 9 8 9 10 10 9 8 8 7 7 6 7 7 7 7 7 8 8 8 8 7 8 6 5 5 5 4 4 5 5
6 5 7 9 9 9 7 5 9 10 10 9 9 9 9 6 9 8 7 6 6 5 6 6 6 7 6 6 6 7 8 8 8 8 8 8 6 5 4 5 5 5 4 4
7 4 5 6 5 7 4 3 5 6 6 10 11 11 9 5 6 5 4 4 4 4 4 4 3 4 5 5 5 6 7 8 8 8 8 8 8 7 6 6 5 4 3 4
5 4 2 3 3 4 5 4 3 5 7 9 5 9 8 3 3 4 4 4 3 3 3 3 3 3 4 5 5 6 7 7 8 8 8 8 8 8 8 7 6 5 4 3
4 5 3 2 5 5 7 8 6 6 7 5 6 9 3 2 2 1 1 2 1 1 2 2 2 3 3 4 5 6 7 7 7 8 7 7 7 6 5 6 5 5 4 4
4 4 3 5 5 5 6 7 4 4 4 6 7 5 4 1 1 2 2 2 2 1 1 1 1 1 2 2 4 6 6 6 7 7 7 7 7 6 6 6 5 4 4 4
4 6 5 3 3 3 4 3 3 5 5 7 7 6 3 2 1 2 2 3 3 2 1 0 0 0 0 1 2 3 6 6 6 6 6 5 6 6 6 5 6 5 5 5
4 5 4 3 3 3 2 3 4 5 5 6 5 2 2 2 1 2 3 3 3 3 2 1 1 1 0 1 1 2 3 5 5 6 6 6 6 6 5 5 5 5 5 5
3 4 5 6 4 4 3 3 3 4 4 5 5 2 4 4 3 4 5 5 4 3 3 2 1 1 1 1 0 1 2 3 4 5 6 6 5 5 5 5 5 5 5 5
3 4 4 3 2 1 1 2 3 4 4 5 6 4 4 5 5 5 5 5 4 3 3 3 2 2 2 1 1 0 1 1 2 4 5 5 5 5 5 5 5 4 5 5
4 5 6 7 6 4 5 5 5 4 4 5 6 7 6 7 6 6 5 5 4 4 3 4 3 3 2 2 1 1 0 1 2 3 4 4 4 5 5 5 5 5 4 4
3 5 6 8 8 6 5 5 4 5 6 6 7 8 8 8 7 6 5 5 4 4 4 5 5 4 3 2 2 1 1 0 1 3 3 3 3 3 4 4 4 4 4 4
3 4 5 7 5 4 3 5 5 5 6 7 8 8 7 7 5 5 5 5 4 4 4 5 5 4 4 3 2 1 1 1 1 2 2 3 3 4 4 4 4 4 4 4
3 3 4 4 4 3 2 5 4 3 4 5 6 7 7 6 5 5 5 5 4 5 4 5 5 5 4 4 2 2 1 0 1 1 1 2 2 3 3 3 4 4 4 4
5 4 3 3 2 2 1 4 3 4 4 4 5 7 7 7 6 4 4 4 5 5 5 5 5 5 4 3 2 1 0 0 1 1 1 2 2 3 3 4 4 3 3 3
4 3 2 2 2 2 3 6 6 5 4 5 7 7 7 7 4 4 6 5 5 5 5 5 4 4 3 3 2 1 1 1 1 0 1 1 2 3 3 3 3 3 3 3
1 1 1 1 1 2 5 9 9 4 3 8 8 8 8 6 4 5 8 7 7 6 5 4 4 3 3 3 2 1 1 1 0 0 0 1 1 2 3 3 3 2 3 3
2 1 1 2 2 2 7 9 5 1 6 10 9 8 7 5 5 7 7 7 6 6 5 5 4 3 3 3 1 1 1 1 1 1 1 1 1 2 2 2 2 2 3 3
2 1 1 2 2 3 7 6 4 6 8 9 9 8 7 7 7 7 7 7 7 6 6 6 5 4 4 3 2 2 2 2 2 1 1 1 2 2 2 2 2 2 3 3
2 3 2 1 1 4 5 5 6 7 8 8 8 8 7 7 7 8 7 7 7 6 6 5 5 5 4 4 3 2 2 2 2 2 2 2 3 2 2 2 2 2 2 2
3 4 3 2 4 6 6 7 8 7 7 8 7 7 7 7 7 7 7 7 6 6 5 5 5 5 5 5 4 3 3 2 2 2 2 2 2 2 2 1 1 1 1 1
4 3 3 3 6 6 6 7 9 9 8 8 8 7 7 6 6 6 6 6 6 5 5 5 4 4 5 5 5 4 4 2 2 2 2 2 2 2 1 1 1 0 1 1
3 3 4 5 7 6 8 9 9 9 8 8 8 8 7 6 6 6 5 5 5 5 5 5 5 5 5 5 5 5 4 3 3 2 2 2 1 1 1 0 1 2 1 1
Wind_Direction
193 209 216 218 221 243 255 249 253 256 242 241 247 257 258 255 250 248 246 241 239 241 242 231 215 203 200 195 193 192 190 184 180 179 180 176 177 178 179 169 182 191 186 188
206 227 235 236 230 236 243 250 256 264 252 257 265 266 262 253 247 245 245 243 240 241 232 223 214 200 197 194 193 194 192 187 186 186 182 183 175 181 176 171 180 192 188 188
232 242 232 221 221 229 237 243 252 259 273 260 274 270 248 241 237 240 241 241 240 236 232 221 213 205 197 194 194 194 194 189 187 182 171 164 160 159 169 181 186 194 190 187
244 250 237 230 230 227 243 244 252 253 255 256 247 276 253 237 237 238 239 236 236 233 231 226 213 205 199 198 195 194 193 189 186 180 180 180 179 178 185 187 187 189 192 190
246 241 233 239 241 227 242 252 242 244 247 258 239 253 264 231 244 243 240 238 240 231 227 222 214 205 197 191 191 192 191 188 186 187 185 185 184 182 175 177 180 181 185 190
263 259 248 249 256 227 216 224 232 229 231 244 233 233 259 226 246 258 250 248 246 228 218 210 200 191 187 184 183 186 188 188 187 188 188 190 186 180 173 176 176 181 184 190
264 242 235 238 231 200 202 197 211 212 216 238 210 228 250 270 275 261 256 254 251 220 201 189 177 176 181 187 184 187 188 188 187 188 191 192 190 186 183 182 184 185 186 190
268 250 225 252 241 225 218 216 224 235 239 248 215 232 238 338 314 271 258 265 250 229 191 182 173 169 178 186 184 187 190 189 189 190 192 192 191 189 189 189 186 189 192 194
286 279 301 281 280 234 206 217 251 259 268 252 230 243 262 0 6 37 16 359 1 344 203 175 158 147 173 184 189 190 187 189 187 187 186 189 192 191 190 188 188 187 190 189
291 283 292 298 265 248 250 214 217 224 231 245 241 240 251 290 341 13 5 347 352 357 321 130 151 145 208 200 194 191 191 188 186 185 185 186 189 191 190 187 187 186 187 183
288 270 284 277 246 259 219 209 234 240 252 250 254 243 24 354 355 355 351 343 347 350 360 39 33 23 34 106 155 182 194 186 184 184 183 182 183 184 184 185 185 183 182 182
295 273 270 268 293 294 237 233 226 238 243 248 259 271 32 357 6 1 353 354 354 4 15 24 28 45 52 61 106 180 192 192 187 186 183 181 179 178 180 180 178 177 179 179
284 263 277 255 180 52 255 266 273 279 268 240 240 246 29 10 6 2 357 359 356 6 10 16 18 23 27 29 32 25 195 200 187 179 176 177 180 178 181 180 176 179 179 176
282 255 257 270 302 301 285 285 277 254 248 254 255 280 317 332 340 345 348 352 352 353 1 360 3 3 2 7 12 1 302 199 187 177 172 176 181 181 182 179 177 179 179 177
314 266 266 279 291 290 284 285 269 251 258 263 281 287 301 312 318 326 335 343 347 353 0 352 346 345 345 353 357 354 356 79 181 178 174 179 180 176 175 173 173 175 175 177
310 277 275 274 274 278 298 315 285 271 275 274 285 289 317 318 325 333 339 342 339 343 345 341 338 338 337 340 339 335 335 348 179 177 177 172 171 172 172 170 167 166 169 173
277 268 272 278 300 281 312 323 295 290 294 275 280 293 316 317 321 326 328 325 325 328 330 329 330 328 322 316 319 312 307 306 171 169 170 163 166 166 167 164 166 170 169 166
266 258 260 283 294 243 9 359 319 300 314 316 307 314 318 319 321 326 332 326 323 324 321 323 326 326 324 317 319 318 327 178 153 152 160 165 171 171 166 165 168 168 168 167
252 250 254 264 283 295 334 348 328 294 303 339 319 322 333 340 340 354 357 343 328 324 320 321 325 323 321 321 328 7 59 86 97 110 170 184 181 175 169 170 172 170 165 163
29 272 275 284 277 307 341 335 325 291 317 349 331 326 335 343 336 339 347 343 338 334 333 335 337 340 336 333 341 55 74 75 45 338 303 179 180 174 170 171 171 166 162 157
356 338 310 294 273 306 343 337 337 351 334 337 334 333 339 338 327 326 334 341 342 345 350 349 351 354 348 345 4 60 47 14 345 356 26 93 134 146 151 152 158 158 153 148
312 296 287 275 272 308 351 358 359 329 326 331 335 339 340 337 340 341 344 346 348 356 360 358 359 0 2 7 35 50 23 6 20 46 64 83 94 102 120 133 139 147 149 148
334 325 314 287 305 338 337 332 327 326 326 333 336 338 340 339 342 345 347 348 351 356 0 1 2 3 9 14 30 41 13 23 51 67 71 80 85 87 103 125 133 136 149 156
334 330 300 292 304 320 329 331 333 332 330 333 336 337 340 338 339 343 344 346 349 354 358 1 7 12 10 11 19 24 19 35 65 72 69 74 84 81 80 87 119 146 166 168
326 327 311 297 313 319 331 336 333 334 336 339 340 338 337 337 339 339 339 341 342 349 355 0 4 5 5 8 16 16 14 30 55 59 53 57 65 75 71 53 25 302 247 232
340 316 305 301 317 309 315 328 332 332 334 336 337 338 341 342 337 338 337 338 339 346 353 357 0 4 4 10 14 11 10 23 36 38 30 29 35 33 28 51 44 28 340 325